星链-34948 (STARLINK-34948)

导读

STARLINK-34948是美国SpaceX星链星座下属的一颗卫星,于2025年8月14日在美国发射升空。星链项目旨在构建全球卫星互联网星座,该卫星继承星链卫星技术特点,将为全球偏远地区、海上及航空移动终端提供低时延宽带互联网服务,进一步扩充了星链星座的在轨服务规模,推动全球互联网络覆盖完善。

Basic Information
目录编号:
65191
目录名称:
STARLINK-34948
国际标识:
2025-175T
轨道中心:
EARTH
卫星名称:
星链-34948
卫星全名:
星链-34948 (STARLINK-34948)
卫星状态:
在轨 (已飞行303 天)
发射日期:
2025-08-14 UTC
国别 :
美国 (US)
星等 :
--
Orbit Information
数据来源 国际轨道数据 AOE轨道数据
星历时间 2026-06-13T12:43:58+0800
12小时前
查看轨道信息
2026-06-11T21:00:00+0800
2天前
查看轨道信息
半长轴 6927.604km 6927.636km
偏心率 0.0002427 0.0002726
轨道倾角 97.368° 97.376°
近地点辐角 100.481° 87.627°
升交点赤经 35.958° 34.379°
平近点角 259.669° 304.596°
近地点 547.785km 547.61km
远地点 551.149km 551.388km
周期 95.639分钟 95.640分钟
每日圈数 15.056644 15.05654
Detailed Information
固有亮度:
5
最大亮度:
2.5
卫星平台:
Starlink V1.0
覆盖范围:
全球
运营商:
太空探索技术公司
运营商所在国:
美国
制造商(研发单位):
太空探索技术公司
制造商所在国:
美国
使用方式:
暂无
Satellite Introduction
Starlink 计划是 SpaceX 推出的全球卫星互联网项目,通过发射低轨道卫星,为全球尤其是偏远地区提供高速、低延迟的互联网服务。自 2019 年起,Starlink 已部署数千颗卫星,旨在缩小全球数字鸿沟,推动互联网普及。该项目还为军事、航空等行业提供通信支持,带来广泛经济效益。
2D Orbit Map
3D Orbit Map
Orbit Altitude Analysis Chart
Orbit Inclination Analysis Chart
Orbit Comprehensive Analysis Chart
View Comprehensive Chart